TimeEDT,TemperatureF,Dew PointF,Humidity,Sea Level PressureIn,VisibilityMPH,Wind Direction,Wind SpeedMPH,Gust SpeedMPH,PrecipitationIn,Events,Conditions,WindDirDegrees,DateUTC
12:51 AM,62.1,57.0,84,30.02,10.0,ESE,4.6,-,N/A,,Clear,110,2013-04-18 04:51:00
1:51 AM,61.0,57.0,87,30.00,10.0,ESE,5.8,-,N/A,,Clear,120,2013-04-18 05:51:00
2:51 AM,60.1,55.9,86,29.98,10.0,Calm,Calm,-,N/A,,Clear,0,2013-04-18 06:51:00
3:51 AM,57.9,55.9,93,29.95,10.0,ESE,4.6,-,N/A,,Clear,110,2013-04-18 07:51:00
4:51 AM,57.9,55.9,93,29.95,10.0,Calm,Calm,-,N/A,,Clear,0,2013-04-18 08:51:00
5:51 AM,57.0,55.0,93,29.95,10.0,East,3.5,-,N/A,,Clear,100,2013-04-18 09:51:00
6:51 AM,59.0,55.0,87,29.97,10.0,Calm,Calm,-,N/A,,Clear,0,2013-04-18 10:51:00
7:51 AM,63.0,57.0,81,29.99,10.0,South,3.5,-,N/A,,Clear,170,2013-04-18 11:51:00
8:51 AM,69.1,57.0,65,29.98,10.0,SSW,5.8,-,N/A,,Partly Cloudy,200,2013-04-18 12:51:00
9:51 AM,73.9,57.0,55,29.97,10.0,SW,5.8,-,N/A,,Partly Cloudy,220,2013-04-18 13:51:00
10:51 AM,75.9,57.9,54,29.96,10.0,SSW,8.1,16.1,N/A,,Overcast,200,2013-04-18 14:51:00
11:51 AM,79.0,57.9,48,29.95,10.0,South,13.8,24.2,N/A,,Clear,190,2013-04-18 15:51:00
12:51 PM,82.0,59.0,45,29.91,10.0,South,12.7,19.6,N/A,,Mostly Cloudy,190,2013-04-18 16:51:00
1:51 PM,82.9,57.0,41,29.87,10.0,South,15.0,26.5,N/A,,Clear,170,2013-04-18 17:51:00
2:51 PM,84.9,57.9,40,29.86,10.0,South,16.1,23.0,N/A,,Scattered Clouds,190,2013-04-18 18:51:00
3:51 PM,84.0,57.0,40,29.84,10.0,SSW,10.4,21.9,N/A,,Scattered Clouds,210,2013-04-18 19:51:00
4:51 PM,84.9,57.0,38,29.81,10.0,South,9.2,-,N/A,,Partly Cloudy,180,2013-04-18 20:51:00
5:51 PM,82.9,55.0,38,29.80,10.0,South,13.8,19.6,N/A,,Mostly Cloudy,170,2013-04-18 21:51:00
6:51 PM,82.0,54.0,38,29.78,10.0,South,12.7,21.9,N/A,,Clear,170,2013-04-18 22:51:00
7:51 PM,81.0,53.1,38,29.77,10.0,South,11.5,-,N/A,,Clear,170,2013-04-18 23:51:00
8:51 PM,79.0,52.0,39,29.78,10.0,South,13.8,23.0,N/A,,Clear,180,2013-04-19 00:51:00
9:51 PM,77.0,50.0,39,29.78,10.0,SSE,13.8,24.2,N/A,,Clear,160,2013-04-19 01:51:00
10:51 PM,75.0,50.0,41,29.77,10.0,SSE,10.4,18.4,N/A,,Clear,160,2013-04-19 02:51:00
11:51 PM,75.0,50.0,41,29.72,10.0,South,10.4,18.4,N/A,,Clear,170,2013-04-19 03:51:00